Time,TemperatureF,DewpointF,PressureIn,WindDirection,WindDirectionDegrees,WindSpeedMPH,WindSpeedGustMPH,Humidity,HourlyPrecipIn,Conditions,Clouds,dailyrainin,SoftwareType,DateUTC
2013-05-05 00:01:00,45.0,37.0,30.30,ENE,67,6.0,15.0,74,0.00,,,0.00,Rainwise IP-100,2013-05-05 04:01:00,
2013-05-05 00:06:00,45.0,37.0,30.30,East,90,4.0,14.0,74,0.00,,,0.00,Rainwise IP-100,2013-05-05 04:06:00,
2013-05-05 00:11:00,45.0,37.0,30.30,NNE,22,7.0,14.0,74,0.00,,,0.00,Rainwise IP-100,2013-05-05 04:11:00,
2013-05-05 00:16:00,45.0,37.0,30.30,NE,45,10.0,14.0,74,0.00,,,0.00,Rainwise IP-100,2013-05-05 04:16:00,
2013-05-05 00:21:00,45.0,37.0,30.30,ENE,67,15.0,15.0,74,0.00,,,0.00,Rainwise IP-100,2013-05-05 04:21:00,
2013-05-05 00:26:00,45.0,37.0,30.30,East,90,9.0,15.0,74,0.00,,,0.00,Rainwise IP-100,2013-05-05 04:26:00,
2013-05-05 00:31:00,45.0,37.0,30.30,SSE,157,2.0,14.0,74,0.00,,,0.00,Rainwise IP-100,2013-05-05 04:31:00,
2013-05-05 00:36:00,45.0,37.0,30.30,East,90,5.0,15.0,74,0.00,,,0.00,Rainwise IP-100,2013-05-05 04:36:00,
2013-05-05 00:41:00,45.0,38.0,30.30,NNE,22,9.0,15.0,75,0.00,,,0.00,Rainwise IP-100,2013-05-05 04:41:00,
2013-05-05 00:46:00,45.0,37.0,30.30,NE,45,7.0,14.0,74,0.00,,,0.00,Rainwise IP-100,2013-05-05 04:46:00,
2013-05-05 00:51:00,45.0,37.0,30.30,East,90,7.0,12.0,74,0.00,,,0.00,Rainwise IP-100,2013-05-05 04:51:00,
2013-05-05 00:56:00,45.0,37.0,30.30,ENE,67,14.0,14.0,74,0.00,,,0.00,Rainwise IP-100,2013-05-05 04:56:00,
2013-05-05 01:02:00,45.0,37.0,30.30,East,90,7.0,16.0,74,0.00,,,0.00,Rainwise IP-100,2013-05-05 05:02:00,
2013-05-05 01:07:00,45.0,37.0,30.30,ENE,67,10.0,12.0,74,0.00,,,0.00,Rainwise IP-100,2013-05-05 05:07:00,
2013-05-05 01:12:00,45.0,37.0,30.30,East,90,7.0,12.0,74,0.00,,,0.00,Rainwise IP-100,2013-05-05 05:12:00,
2013-05-05 01:17:00,45.0,37.0,30.30,NE,45,7.0,16.0,74,0.00,,,0.00,Rainwise IP-100,2013-05-05 05:17:00,
2013-05-05 01:22:00,45.0,37.0,30.29,NE,45,6.0,12.0,74,0.00,,,0.00,Rainwise IP-100,2013-05-05 05:22:00,
2013-05-05 01:27:00,45.0,37.0,30.29,East,90,7.0,13.0,74,0.00,,,0.00,Rainwise IP-100,2013-05-05 05:27:00,
2013-05-05 01:32:00,45.0,37.0,30.29,ESE,112,7.0,13.0,74,0.00,,,0.00,Rainwise IP-100,2013-05-05 05:32:00,
2013-05-05 01:37:00,45.0,37.0,30.29,NE,45,5.0,15.0,74,0.00,,,0.00,Rainwise IP-100,2013-05-05 05:37:00,
2013-05-05 01:42:00,45.0,37.0,30.29,NE,45,9.0,12.0,74,0.00,,,0.00,Rainwise IP-100,2013-05-05 05:42:00,
2013-05-05 01:47:00,45.0,37.0,30.29,NNE,22,6.0,15.0,74,0.00,,,0.00,Rainwise IP-100,2013-05-05 05:47:00,
2013-05-05 01:52:00,45.0,37.0,30.29,East,90,7.0,15.0,74,0.00,,,0.00,Rainwise IP-100,2013-05-05 05:52:00,
2013-05-05 01:57:00,45.0,37.0,30.29,ENE,67,5.0,13.0,73,0.00,,,0.00,Rainwise IP-100,2013-05-05 05:57:00,
2013-05-05 02:02:00,45.0,37.0,30.28,NE,45,6.0,13.0,73,0.00,,,0.00,Rainwise IP-100,2013-05-05 06:02:00,
2013-05-05 02:07:00,45.0,37.0,30.28,ENE,67,7.0,13.0,73,0.00,,,0.00,Rainwise IP-100,2013-05-05 06:07:00,
2013-05-05 02:12:00,45.0,37.0,30.28,SE,135,5.0,12.0,74,0.00,,,0.00,Rainwise IP-100,2013-05-05 06:12:00,
2013-05-05 02:18:00,45.0,37.0,30.28,East,90,5.0,13.0,73,0.00,,,0.00,Rainwise IP-100,2013-05-05 06:18:00,
2013-05-05 02:23:00,45.0,37.0,30.28,ENE,67,9.0,10.0,73,0.00,,,0.00,Rainwise IP-100,2013-05-05 06:23:00,
2013-05-05 02:28:00,45.0,37.0,30.28,NE,45,6.0,11.0,72,0.00,,,0.00,Rainwise IP-100,2013-05-05 06:28:00,
2013-05-05 02:33:00,45.0,37.0,30.28,ENE,67,7.0,15.0,72,0.00,,,0.00,Rainwise IP-100,2013-05-05 06:33:00,
2013-05-05 02:38:00,45.0,37.0,30.28,ENE,67,5.0,13.0,72,0.00,,,0.00,Rainwise IP-100,2013-05-05 06:38:00,
2013-05-05 02:43:00,45.0,37.0,30.28,East,90,6.0,14.0,72,0.00,,,0.00,Rainwise IP-100,2013-05-05 06:43:00,
2013-05-05 02:48:00,45.0,37.0,30.28,ENE,67,4.0,13.0,72,0.00,,,0.00,Rainwise IP-100,2013-05-05 06:48:00,
2013-05-05 02:53:00,45.0,37.0,30.28,East,90,7.0,11.0,72,0.00,,,0.00,Rainwise IP-100,2013-05-05 06:53:00,
2013-05-05 02:58:00,45.0,37.0,30.28,NE,45,2.0,12.0,72,0.00,,,0.00,Rainwise IP-100,2013-05-05 06:58:00,
2013-05-05 03:03:00,45.0,37.0,30.28,East,90,9.0,12.0,72,0.00,,,0.00,Rainwise IP-100,2013-05-05 07:03:00,
2013-05-05 03:08:00,45.0,37.0,30.28,ENE,67,0.0,14.0,72,0.00,,,0.00,Rainwise IP-100,2013-05-05 07:08:00,
2013-05-05 03:13:00,45.0,37.0,30.28,NE,45,1.0,15.0,72,0.00,,,0.00,Rainwise IP-100,2013-05-05 07:13:00,
2013-05-05 03:18:00,45.0,37.0,30.28,East,90,1.0,15.0,72,0.00,,,0.00,Rainwise IP-100,2013-05-05 07:18:00,
2013-05-05 03:23:00,45.0,37.0,30.28,East,90,9.0,12.0,72,0.00,,,0.00,Rainwise IP-100,2013-05-05 07:23:00,
2013-05-05 03:28:00,45.0,37.0,30.28,East,90,6.0,15.0,72,0.00,,,0.00,Rainwise IP-100,2013-05-05 07:28:00,
2013-05-05 03:34:00,45.0,37.0,30.28,East,90,9.0,14.0,72,0.00,,,0.00,Rainwise IP-100,2013-05-05 07:34:00,
2013-05-05 03:39:00,45.0,37.0,30.28,ENE,67,6.0,15.0,72,0.00,,,0.00,Rainwise IP-100,2013-05-05 07:39:00,
2013-05-05 03:44:00,45.0,37.0,30.28,NE,45,10.0,13.0,72,0.00,,,0.00,Rainwise IP-100,2013-05-05 07:44:00,
2013-05-05 03:49:00,45.0,38.0,30.28,ENE,67,10.0,14.0,76,0.00,,,0.00,Rainwise IP-100,2013-05-05 07:49:00,
2013-05-05 03:54:00,45.0,37.0,30.28,East,90,3.0,16.0,73,0.00,,,0.00,Rainwise IP-100,2013-05-05 07:54:00,
2013-05-05 03:59:00,45.0,38.0,30.28,East,90,10.0,14.0,76,0.00,,,0.00,Rainwise IP-100,2013-05-05 07:59:00,
2013-05-05 04:04:00,45.0,37.0,30.28,NE,45,4.0,15.0,73,0.00,,,0.00,Rainwise IP-100,2013-05-05 08:04:00,
2013-05-05 04:09:00,45.0,38.0,30.28,East,90,6.0,12.0,76,0.00,,,0.00,Rainwise IP-100,2013-05-05 08:09:00,
2013-05-05 04:14:00,45.0,37.0,30.28,ENE,67,9.0,16.0,73,0.00,,,0.00,Rainwise IP-100,2013-05-05 08:14:00,
2013-05-05 04:19:00,45.0,38.0,30.28,NE,45,7.0,14.0,76,0.00,,,0.00,Rainwise IP-100,2013-05-05 08:19:00,
2013-05-05 04:24:00,45.0,37.0,30.28,East,90,8.0,12.0,73,0.00,,,0.00,Rainwise IP-100,2013-05-05 08:24:00,
2013-05-05 04:29:00,45.0,38.0,30.28,East,90,6.0,12.0,76,0.00,,,0.00,Rainwise IP-100,2013-05-05 08:29:00,
2013-05-05 04:34:00,45.0,37.0,30.28,East,90,7.0,13.0,73,0.00,,,0.00,Rainwise IP-100,2013-05-05 08:34:00,
2013-05-05 04:39:00,45.0,38.0,30.28,ENE,67,9.0,12.0,76,0.00,,,0.00,Rainwise IP-100,2013-05-05 08:39:00,
2013-05-05 04:44:00,45.0,37.0,30.28,East,90,1.0,13.0,72,0.00,,,0.00,Rainwise IP-100,2013-05-05 08:44:00,
2013-05-05 04:50:00,45.0,37.0,30.28,ESE,112,9.0,13.0,73,0.00,,,0.00,Rainwise IP-100,2013-05-05 08:50:00,
2013-05-05 04:55:00,45.0,37.0,30.28,NE,45,6.0,13.0,72,0.00,,,0.00,Rainwise IP-100,2013-05-05 08:55:00,
2013-05-05 05:00:00,45.0,37.0,30.28,East,90,2.0,14.0,73,0.00,,,0.00,Rainwise IP-100,2013-05-05 09:00:00,
2013-05-05 05:05:00,46.0,37.0,30.28,ENE,67,11.0,14.0,72,0.00,,,0.00,Rainwise IP-100,2013-05-05 09:05:00,
2013-05-05 05:10:00,45.0,37.0,30.28,East,90,12.0,14.0,74,0.00,,,0.00,Rainwise IP-100,2013-05-05 09:10:00,
2013-05-05 05:15:00,45.0,37.0,30.28,ENE,67,4.0,14.0,74,0.00,,,0.00,Rainwise IP-100,2013-05-05 09:15:00,
2013-05-05 05:20:00,46.0,38.0,30.28,East,90,7.0,12.0,74,0.00,,,0.00,Rainwise IP-100,2013-05-05 09:20:00,
2013-05-05 05:25:00,46.0,38.0,30.28,East,90,7.0,16.0,74,0.00,,,0.00,Rainwise IP-100,2013-05-05 09:25:00,
2013-05-05 05:30:00,46.0,38.0,30.28,ENE,67,5.0,15.0,74,0.00,,,0.00,Rainwise IP-100,2013-05-05 09:30:00,
2013-05-05 05:35:00,45.0,37.0,30.28,ENE,67,10.0,20.0,74,0.00,,,0.00,Rainwise IP-100,2013-05-05 09:35:00,
2013-05-05 05:40:00,45.0,37.0,30.28,SE,135,2.0,15.0,74,0.00,,,0.00,Rainwise IP-100,2013-05-05 09:40:00,
2013-05-05 05:45:00,45.0,37.0,30.28,East,90,7.0,15.0,74,0.00,,,0.00,Rainwise IP-100,2013-05-05 09:45:00,
2013-05-05 05:50:00,45.0,37.0,30.28,East,90,10.0,15.0,74,0.00,,,0.00,Rainwise IP-100,2013-05-05 09:50:00,
2013-05-05 05:55:00,45.0,37.0,30.28,ENE,67,10.0,14.0,74,0.00,,,0.00,Rainwise IP-100,2013-05-05 09:55:00,
2013-05-05 06:00:00,45.0,37.0,30.28,ESE,112,8.0,15.0,74,0.00,,,0.00,Rainwise IP-100,2013-05-05 10:00:00,
2013-05-05 06:06:00,45.0,37.0,30.28,ENE,67,7.0,16.0,74,0.00,,,0.00,Rainwise IP-100,2013-05-05 10:06:00,
2013-05-05 06:11:00,46.0,38.0,30.28,NE,45,9.0,16.0,74,0.00,,,0.00,Rainwise IP-100,2013-05-05 10:11:00,
2013-05-05 06:16:00,46.0,38.0,30.28,East,90,9.0,13.0,74,0.00,,,0.00,Rainwise IP-100,2013-05-05 10:16:00,
2013-05-05 06:21:00,46.0,38.0,30.28,East,90,6.0,13.0,74,0.00,,,0.00,Rainwise IP-100,2013-05-05 10:21:00,
2013-05-05 06:26:00,46.0,38.0,30.28,ESE,112,7.0,15.0,74,0.00,,,0.00,Rainwise IP-100,2013-05-05 10:26:00,
2013-05-05 06:31:00,46.0,38.0,30.28,East,90,6.0,15.0,74,0.00,,,0.00,Rainwise IP-100,2013-05-05 10:31:00,
2013-05-05 06:36:00,46.0,38.0,30.28,East,90,10.0,14.0,74,0.00,,,0.00,Rainwise IP-100,2013-05-05 10:36:00,
2013-05-05 06:41:00,46.0,38.0,30.29,East,90,5.0,12.0,75,0.00,,,0.00,Rainwise IP-100,2013-05-05 10:41:00,
2013-05-05 06:46:00,46.0,38.0,30.29,ENE,67,12.0,16.0,75,0.00,,,0.00,Rainwise IP-100,2013-05-05 10:46:00,
2013-05-05 06:51:00,46.0,38.0,30.29,East,90,5.0,17.0,75,0.00,,,0.00,Rainwise IP-100,2013-05-05 10:51:00,
2013-05-05 06:56:00,46.0,38.0,30.29,East,90,14.0,14.0,75,0.00,,,0.00,Rainwise IP-100,2013-05-05 10:56:00,
2013-05-05 07:01:00,47.0,39.0,30.29,ENE,67,9.0,16.0,75,0.00,,,0.00,Rainwise IP-100,2013-05-05 11:01:00,
2013-05-05 07:06:00,46.0,38.0,30.29,East,90,6.0,14.0,75,0.00,,,0.00,Rainwise IP-100,2013-05-05 11:06:00,
2013-05-05 07:11:00,47.0,39.0,30.29,East,90,12.0,13.0,75,0.00,,,0.00,Rainwise IP-100,2013-05-05 11:11:00,
2013-05-05 07:16:00,47.0,39.0,30.29,ENE,67,6.0,12.0,75,0.00,,,0.00,Rainwise IP-100,2013-05-05 11:16:00,
2013-05-05 07:17:00,47.0,39.0,30.29,ENE,67,6.0,12.0,75,0.00,,,0.00,Rainwise IP-100,2013-05-05 11:17:00,
2013-05-05 07:22:00,46.0,39.0,30.29,East,90,7.0,15.0,76,0.00,,,0.00,Rainwise IP-100,2013-05-05 11:22:00,
2013-05-05 07:27:00,47.0,39.0,30.29,East,90,7.0,13.0,76,0.00,,,0.00,Rainwise IP-100,2013-05-05 11:27:00,
2013-05-05 07:32:00,47.0,39.0,30.30,ENE,67,12.0,14.0,75,0.00,,,0.00,Rainwise IP-100,2013-05-05 11:32:00,
2013-05-05 07:37:00,47.0,39.0,30.30,East,90,4.0,15.0,75,0.00,,,0.00,Rainwise IP-100,2013-05-05 11:37:00,
2013-05-05 07:42:00,47.0,39.0,30.30,East,90,0.0,16.0,75,0.00,,,0.00,Rainwise IP-100,2013-05-05 11:42:00,
2013-05-05 07:47:00,47.0,39.0,30.30,ENE,67,6.0,13.0,75,0.00,,,0.00,Rainwise IP-100,2013-05-05 11:47:00,
2013-05-05 07:52:00,47.0,39.0,30.30,ENE,67,7.0,15.0,76,0.00,,,0.00,Rainwise IP-100,2013-05-05 11:52:00,
2013-05-05 07:57:00,47.0,39.0,30.30,NNE,22,3.0,12.0,75,0.00,,,0.00,Rainwise IP-100,2013-05-05 11:57:00,
2013-05-05 08:02:00,47.0,39.0,30.30,East,90,10.0,15.0,76,0.00,,,0.00,Rainwise IP-100,2013-05-05 12:02:00,
2013-05-05 08:08:00,47.0,39.0,30.30,ESE,112,9.0,12.0,76,0.00,,,0.00,Rainwise IP-100,2013-05-05 12:08:00,
2013-05-05 08:13:00,47.0,39.0,30.30,East,90,7.0,16.0,76,0.00,,,0.00,Rainwise IP-100,2013-05-05 12:13:00,
2013-05-05 08:18:00,48.0,41.0,30.30,ENE,67,7.0,16.0,77,0.00,,,0.00,Rainwise IP-100,2013-05-05 12:18:00,
2013-05-05 08:23:00,48.0,41.0,30.30,ENE,67,6.0,15.0,77,0.00,,,0.00,Rainwise IP-100,2013-05-05 12:23:00,
2013-05-05 08:28:00,48.0,41.0,30.30,ESE,112,12.0,17.0,77,0.00,,,0.00,Rainwise IP-100,2013-05-05 12:28:00,
2013-05-05 08:33:00,48.0,41.0,30.30,East,90,10.0,16.0,77,0.00,,,0.00,Rainwise IP-100,2013-05-05 12:33:00,
2013-05-05 08:38:00,48.0,41.0,30.30,East,90,8.0,15.0,77,0.00,,,0.00,Rainwise IP-100,2013-05-05 12:38:00,
2013-05-05 08:43:00,48.0,41.0,30.30,ENE,67,6.0,16.0,77,0.00,,,0.00,Rainwise IP-100,2013-05-05 12:43:00,
2013-05-05 08:48:00,48.0,41.0,30.30,ESE,112,7.0,16.0,77,0.00,,,0.00,Rainwise IP-100,2013-05-05 12:48:00,
2013-05-05 08:53:00,48.0,41.0,30.30,ENE,67,13.0,15.0,77,0.00,,,0.00,Rainwise IP-100,2013-05-05 12:53:00,
2013-05-05 08:58:00,48.0,41.0,30.30,ENE,67,10.0,15.0,77,0.00,,,0.00,Rainwise IP-100,2013-05-05 12:58:00,
2013-05-05 09:03:00,48.0,41.0,30.30,East,90,3.0,13.0,77,0.00,,,0.00,Rainwise IP-100,2013-05-05 13:03:00,
2013-05-05 09:08:00,48.0,41.0,30.30,East,90,10.0,16.0,77,0.00,,,0.00,Rainwise IP-100,2013-05-05 13:08:00,
2013-05-05 09:13:00,48.0,41.0,30.30,SE,135,3.0,13.0,77,0.00,,,0.00,Rainwise IP-100,2013-05-05 13:13:00,
2013-05-05 09:18:00,48.0,41.0,30.30,East,90,6.0,16.0,77,0.00,,,0.00,Rainwise IP-100,2013-05-05 13:18:00,
2013-05-05 09:24:00,48.0,41.0,30.30,South,180,4.0,12.0,77,0.00,,,0.00,Rainwise IP-100,2013-05-05 13:24:00,
2013-05-05 09:29:00,49.0,42.0,30.30,East,90,9.0,19.0,78,0.00,,,0.00,Rainwise IP-100,2013-05-05 13:29:00,
2013-05-05 09:34:00,49.0,42.0,30.30,East,90,11.0,16.0,77,0.00,,,0.00,Rainwise IP-100,2013-05-05 13:34:00,
2013-05-05 09:39:00,49.0,43.0,30.30,NE,45,6.0,17.0,79,0.00,,,0.00,Rainwise IP-100,2013-05-05 13:39:00,
2013-05-05 09:44:00,49.0,42.0,30.30,East,90,7.0,15.0,77,0.00,,,0.00,Rainwise IP-100,2013-05-05 13:44:00,
2013-05-05 09:49:00,49.0,43.0,30.30,East,90,10.0,16.0,79,0.00,,,0.00,Rainwise IP-100,2013-05-05 13:49:00,
2013-05-05 09:54:00,49.0,42.0,30.30,ENE,67,6.0,15.0,77,0.00,,,0.00,Rainwise IP-100,2013-05-05 13:54:00,
2013-05-05 09:59:00,50.0,43.0,30.30,East,90,5.0,15.0,79,0.00,,,0.00,Rainwise IP-100,2013-05-05 13:59:00,
2013-05-05 10:04:00,50.0,43.0,30.30,NE,45,3.0,15.0,77,0.00,,,0.00,Rainwise IP-100,2013-05-05 14:04:00,
2013-05-05 10:09:00,50.0,43.0,30.30,ESE,112,4.0,15.0,79,0.00,,,0.00,Rainwise IP-100,2013-05-05 14:09:00,
2013-05-05 10:14:00,51.0,45.0,30.30,East,90,4.0,13.0,78,0.00,,,0.00,Rainwise IP-100,2013-05-05 14:14:00,
2013-05-05 10:19:00,50.0,43.0,30.30,NE,45,15.0,16.0,79,0.00,,,0.00,Rainwise IP-100,2013-05-05 14:19:00,
2013-05-05 10:24:00,50.0,43.0,30.30,ESE,112,5.0,17.0,78,0.00,,,0.00,Rainwise IP-100,2013-05-05 14:24:00,
2013-05-05 10:29:00,50.0,43.0,30.30,ENE,67,10.0,13.0,79,0.00,,,0.00,Rainwise IP-100,2013-05-05 14:29:00,
2013-05-05 10:35:00,50.0,43.0,30.30,East,90,13.0,18.0,78,0.00,,,0.00,Rainwise IP-100,2013-05-05 14:35:00,
2013-05-05 10:40:00,50.0,43.0,30.30,NE,45,10.0,18.0,79,0.00,,,0.00,Rainwise IP-100,2013-05-05 14:40:00,
2013-05-05 10:45:00,51.0,45.0,30.30,ESE,112,8.0,16.0,78,0.00,,,0.00,Rainwise IP-100,2013-05-05 14:45:00,
2013-05-05 10:50:00,50.0,43.0,30.30,SE,135,1.0,19.0,77,0.00,,,0.00,Rainwise IP-100,2013-05-05 14:50:00,
2013-05-05 10:55:00,50.0,43.0,30.30,East,90,2.0,16.0,78,0.00,,,0.00,Rainwise IP-100,2013-05-05 14:55:00,
2013-05-05 11:00:00,51.0,45.0,30.30,ENE,67,11.0,15.0,79,0.00,,,0.00,Rainwise IP-100,2013-05-05 15:00:00,
2013-05-05 11:05:00,52.0,45.0,30.30,East,90,3.0,16.0,78,0.00,,,0.00,Rainwise IP-100,2013-05-05 15:05:00,
2013-05-05 11:10:00,51.0,44.0,30.29,East,90,8.0,16.0,77,0.00,,,0.00,Rainwise IP-100,2013-05-05 15:10:00,
2013-05-05 11:15:00,51.0,45.0,30.29,ENE,67,2.0,15.0,78,0.00,,,0.00,Rainwise IP-100,2013-05-05 15:15:00,
2013-05-05 11:20:00,50.0,43.0,30.29,NE,45,5.0,19.0,77,0.00,,,0.00,Rainwise IP-100,2013-05-05 15:20:00,
2013-05-05 11:25:00,51.0,45.0,30.29,ENE,67,9.0,16.0,78,0.00,,,0.00,Rainwise IP-100,2013-05-05 15:25:00,
2013-05-05 11:30:00,51.0,44.0,30.29,ENE,67,7.0,17.0,77,0.00,,,0.00,Rainwise IP-100,2013-05-05 15:30:00,
2013-05-05 11:35:00,51.0,45.0,30.29,NE,45,8.0,17.0,78,0.00,,,0.00,Rainwise IP-100,2013-05-05 15:35:00,
2013-05-05 11:40:00,52.0,45.0,30.29,East,90,6.0,18.0,77,0.00,,,0.00,Rainwise IP-100,2013-05-05 15:40:00,
2013-05-05 11:45:00,52.0,45.0,30.29,SSW,202,0.0,14.0,78,0.00,,,0.00,Rainwise IP-100,2013-05-05 15:45:00,
2013-05-05 11:51:00,51.0,44.0,30.30,East,90,12.0,15.0,77,0.00,,,0.00,Rainwise IP-100,2013-05-05 15:51:00,
2013-05-05 11:56:00,51.0,45.0,30.30,East,90,2.0,19.0,78,0.00,,,0.00,Rainwise IP-100,2013-05-05 15:56:00,
2013-05-05 12:01:00,51.0,45.0,30.30,NE,45,14.0,19.0,78,0.00,,,0.00,Rainwise IP-100,2013-05-05 16:01:00,
2013-05-05 12:06:00,51.0,45.0,30.30,NE,45,4.0,18.0,78,0.00,,,0.00,Rainwise IP-100,2013-05-05 16:06:00,
2013-05-05 12:11:00,52.0,45.0,30.29,East,90,10.0,19.0,78,0.00,,,0.00,Rainwise IP-100,2013-05-05 16:11:00,
2013-05-05 12:16:00,50.0,43.0,30.29,East,90,14.0,19.0,78,0.00,,,0.00,Rainwise IP-100,2013-05-05 16:16:00,
2013-05-05 12:21:00,51.0,44.0,30.29,East,90,7.0,16.0,77,0.00,,,0.00,Rainwise IP-100,2013-05-05 16:21:00,
2013-05-05 12:26:00,51.0,45.0,30.29,ESE,112,6.0,16.0,78,0.00,,,0.00,Rainwise IP-100,2013-05-05 16:26:00,
2013-05-05 12:31:00,51.0,45.0,30.29,East,90,15.0,16.0,78,0.00,,,0.00,Rainwise IP-100,2013-05-05 16:31:00,
2013-05-05 12:36:00,51.0,45.0,30.29,East,90,9.0,17.0,78,0.00,,,0.00,Rainwise IP-100,2013-05-05 16:36:00,
2013-05-05 12:41:00,51.0,45.0,30.30,ENE,67,10.0,20.0,78,0.00,,,0.00,Rainwise IP-100,2013-05-05 16:41:00,
2013-05-05 12:46:00,51.0,45.0,30.30,East,90,8.0,16.0,78,0.00,,,0.00,Rainwise IP-100,2013-05-05 16:46:00,
2013-05-05 12:51:00,51.0,45.0,30.30,East,90,15.0,17.0,78,0.00,,,0.00,Rainwise IP-100,2013-05-05 16:51:00,
2013-05-05 12:56:00,50.0,43.0,30.30,East,90,10.0,17.0,78,0.00,,,0.00,Rainwise IP-100,2013-05-05 16:56:00,
2013-05-05 13:01:00,50.0,43.0,30.30,ENE,67,14.0,16.0,78,0.00,,,0.00,Rainwise IP-100,2013-05-05 17:01:00,
2013-05-05 13:07:00,51.0,45.0,30.30,East,90,15.0,17.0,78,0.00,,,0.00,Rainwise IP-100,2013-05-05 17:07:00,
2013-05-05 13:12:00,51.0,45.0,30.29,NE,45,12.0,15.0,78,0.00,,,0.00,Rainwise IP-100,2013-05-05 17:12:00,
2013-05-05 13:17:00,52.0,45.0,30.29,ESE,112,6.0,19.0,78,0.00,,,0.00,Rainwise IP-100,2013-05-05 17:17:00,
2013-05-05 13:22:00,51.0,45.0,30.29,ENE,67,6.0,18.0,78,0.00,,,0.00,Rainwise IP-100,2013-05-05 17:22:00,
2013-05-05 13:27:00,51.0,45.0,30.29,ENE,67,10.0,19.0,78,0.00,,,0.00,Rainwise IP-100,2013-05-05 17:27:00,
2013-05-05 13:32:00,51.0,45.0,30.29,ENE,67,8.0,18.0,78,0.00,,,0.00,Rainwise IP-100,2013-05-05 17:32:00,
2013-05-05 13:37:00,51.0,45.0,30.29,ENE,67,9.0,18.0,78,0.00,,,0.00,Rainwise IP-100,2013-05-05 17:37:00,
2013-05-05 13:42:00,51.0,45.0,30.29,NNE,22,4.0,18.0,78,0.00,,,0.00,Rainwise IP-100,2013-05-05 17:42:00,
2013-05-05 13:47:00,51.0,45.0,30.29,East,90,9.0,18.0,78,0.00,,,0.00,Rainwise IP-100,2013-05-05 17:47:00,
2013-05-05 13:52:00,51.0,45.0,30.30,ENE,67,8.0,17.0,78,0.00,,,0.00,Rainwise IP-100,2013-05-05 17:52:00,
2013-05-05 13:57:00,51.0,45.0,30.30,ENE,67,12.0,16.0,78,0.00,,,0.00,Rainwise IP-100,2013-05-05 17:57:00,
2013-05-05 14:02:00,51.0,45.0,30.28,NE,45,7.0,17.0,78,0.00,,,0.00,Rainwise IP-100,2013-05-05 18:02:00,
2013-05-05 14:07:00,51.0,45.0,30.28,East,90,8.0,17.0,78,0.00,,,0.00,Rainwise IP-100,2013-05-05 18:07:00,
2013-05-05 14:12:00,50.0,43.0,30.29,ENE,67,9.0,16.0,78,0.00,,,0.00,Rainwise IP-100,2013-05-05 18:12:00,
2013-05-05 14:17:00,50.0,43.0,30.29,ENE,67,5.0,18.0,78,0.00,,,0.00,Rainwise IP-100,2013-05-05 18:17:00,
2013-05-05 14:23:00,50.0,43.0,30.29,East,90,7.0,15.0,78,0.00,,,0.00,Rainwise IP-100,2013-05-05 18:23:00,
2013-05-05 14:28:00,50.0,43.0,30.29,ENE,67,11.0,17.0,78,0.00,,,0.00,Rainwise IP-100,2013-05-05 18:28:00,
2013-05-05 14:33:00,51.0,45.0,30.29,East,90,16.0,16.0,78,0.00,,,0.00,Rainwise IP-100,2013-05-05 18:33:00,
2013-05-05 14:38:00,50.0,43.0,30.29,East,90,7.0,17.0,78,0.00,,,0.00,Rainwise IP-100,2013-05-05 18:38:00,
2013-05-05 14:43:00,51.0,45.0,30.29,ENE,67,7.0,17.0,78,0.00,,,0.00,Rainwise IP-100,2013-05-05 18:43:00,
2013-05-05 14:48:00,50.0,43.0,30.29,ENE,67,10.0,13.0,78,0.00,,,0.00,Rainwise IP-100,2013-05-05 18:48:00,
2013-05-05 14:53:00,50.0,43.0,30.30,East,90,9.0,18.0,78,0.00,,,0.00,Rainwise IP-100,2013-05-05 18:53:00,
2013-05-05 14:58:00,50.0,43.0,30.30,ENE,67,6.0,13.0,78,0.00,,,0.00,Rainwise IP-100,2013-05-05 18:58:00,
2013-05-05 15:03:00,50.0,43.0,30.29,ESE,112,4.0,14.0,78,0.00,,,0.00,Rainwise IP-100,2013-05-05 19:03:00,
2013-05-05 15:08:00,49.0,42.0,30.29,ENE,67,9.0,17.0,78,0.00,,,0.00,Rainwise IP-100,2013-05-05 19:08:00,
2013-05-05 15:13:00,49.0,42.0,30.30,ESE,112,9.0,15.0,78,0.00,,,0.00,Rainwise IP-100,2013-05-05 19:13:00,
2013-05-05 15:18:00,49.0,42.0,30.30,ENE,67,9.0,16.0,78,0.00,,,0.00,Rainwise IP-100,2013-05-05 19:18:00,
2013-05-05 15:23:00,49.0,42.0,30.30,East,90,6.0,18.0,78,0.00,,,0.00,Rainwise IP-100,2013-05-05 19:23:00,
2013-05-05 15:28:00,49.0,42.0,30.30,ESE,112,5.0,15.0,78,0.00,,,0.00,Rainwise IP-100,2013-05-05 19:28:00,
2013-05-05 15:33:00,48.0,42.0,30.30,ENE,67,1.0,16.0,78,0.00,,,0.00,Rainwise IP-100,2013-05-05 19:33:00,
2013-05-05 15:39:00,49.0,42.0,30.30,East,90,6.0,13.0,78,0.00,,,0.00,Rainwise IP-100,2013-05-05 19:39:00,
2013-05-05 15:44:00,48.0,42.0,30.29,ENE,67,12.0,16.0,78,0.00,,,0.00,Rainwise IP-100,2013-05-05 19:44:00,
2013-05-05 15:49:00,48.0,42.0,30.29,ENE,67,5.0,15.0,79,0.00,,,0.00,Rainwise IP-100,2013-05-05 19:49:00,
2013-05-05 15:54:00,48.0,41.0,30.29,East,90,6.0,15.0,77,0.00,,,0.00,Rainwise IP-100,2013-05-05 19:54:00,
2013-05-05 15:59:00,48.0,42.0,30.30,East,90,8.0,15.0,79,0.00,,,0.00,Rainwise IP-100,2013-05-05 19:59:00,
2013-05-05 16:04:00,48.0,41.0,30.30,East,90,8.0,12.0,77,0.00,,,0.00,Rainwise IP-100,2013-05-05 20:04:00,
2013-05-05 16:09:00,48.0,41.0,30.30,East,90,6.0,14.0,77,0.00,,,0.00,Rainwise IP-100,2013-05-05 20:09:00,
2013-05-05 16:14:00,48.0,41.0,30.29,NNE,22,8.0,14.0,77,0.00,,,0.00,Rainwise IP-100,2013-05-05 20:14:00,
2013-05-05 16:19:00,49.0,42.0,30.28,NE,45,1.0,15.0,78,0.00,,,0.00,Rainwise IP-100,2013-05-05 20:19:00,
2013-05-05 16:24:00,49.0,42.0,30.28,ENE,67,2.0,13.0,77,0.00,,,0.00,Rainwise IP-100,2013-05-05 20:24:00,
2013-05-05 16:29:00,49.0,42.0,30.28,East,90,6.0,13.0,78,0.00,,,0.00,Rainwise IP-100,2013-05-05 20:29:00,
2013-05-05 16:34:00,48.0,41.0,30.28,ESE,112,11.0,13.0,77,0.00,,,0.00,Rainwise IP-100,2013-05-05 20:34:00,
2013-05-05 16:39:00,48.0,42.0,30.28,ESE,112,6.0,13.0,78,0.00,,,0.00,Rainwise IP-100,2013-05-05 20:39:00,
2013-05-05 16:44:00,48.0,41.0,30.28,ENE,67,5.0,14.0,77,0.00,,,0.00,Rainwise IP-100,2013-05-05 20:44:00,
2013-05-05 16:49:00,48.0,42.0,30.28,East,90,10.0,12.0,78,0.00,,,0.00,Rainwise IP-100,2013-05-05 20:49:00,
2013-05-05 16:55:00,48.0,41.0,30.28,ESE,112,7.0,13.0,77,0.00,,,0.00,Rainwise IP-100,2013-05-05 20:55:00,
2013-05-05 17:00:00,48.0,42.0,30.28,ENE,67,6.0,14.0,78,0.00,,,0.00,Rainwise IP-100,2013-05-05 21:00:00,
2013-05-05 17:05:00,48.0,41.0,30.28,East,90,4.0,14.0,77,0.00,,,0.00,Rainwise IP-100,2013-05-05 21:05:00,
2013-05-05 17:10:00,48.0,42.0,30.28,East,90,5.0,15.0,78,0.00,,,0.00,Rainwise IP-100,2013-05-05 21:10:00,
2013-05-05 17:15:00,48.0,41.0,30.28,ESE,112,6.0,13.0,77,0.00,,,0.00,Rainwise IP-100,2013-05-05 21:15:00,
2013-05-05 17:20:00,48.0,41.0,30.28,ENE,67,9.0,13.0,77,0.00,,,0.00,Rainwise IP-100,2013-05-05 21:20:00,
2013-05-05 17:25:00,48.0,41.0,30.28,SE,135,9.0,12.0,77,0.00,,,0.00,Rainwise IP-100,2013-05-05 21:25:00,
2013-05-05 17:30:00,48.0,41.0,30.28,ESE,112,6.0,12.0,77,0.00,,,0.00,Rainwise IP-100,2013-05-05 21:30:00,
2013-05-05 17:35:00,48.0,41.0,30.28,SE,135,3.0,10.0,77,0.00,,,0.00,Rainwise IP-100,2013-05-05 21:35:00,
2013-05-05 17:40:00,48.0,41.0,30.28,ENE,67,2.0,15.0,77,0.00,,,0.00,Rainwise IP-100,2013-05-05 21:40:00,
2013-05-05 17:45:00,47.0,39.0,30.28,NE,45,0.0,12.0,76,0.00,,,0.00,Rainwise IP-100,2013-05-05 21:45:00,
2013-05-05 17:50:00,47.0,39.0,30.28,SE,135,5.0,13.0,75,0.00,,,0.00,Rainwise IP-100,2013-05-05 21:50:00,
2013-05-05 17:55:00,47.0,39.0,30.28,East,90,6.0,12.0,75,0.00,,,0.00,Rainwise IP-100,2013-05-05 21:55:00,
2013-05-05 18:00:00,47.0,39.0,30.28,East,90,4.0,10.0,75,0.00,,,0.00,Rainwise IP-100,2013-05-05 22:00:00,
2013-05-05 18:05:00,47.0,39.0,30.28,East,90,6.0,11.0,75,0.00,,,0.00,Rainwise IP-100,2013-05-05 22:05:00,
2013-05-05 18:11:00,47.0,39.0,30.28,ENE,67,6.0,13.0,75,0.00,,,0.00,Rainwise IP-100,2013-05-05 22:11:00,
2013-05-05 18:16:00,47.0,39.0,30.28,East,90,7.0,12.0,75,0.00,,,0.00,Rainwise IP-100,2013-05-05 22:16:00,
2013-05-05 18:21:00,47.0,39.0,30.28,East,90,6.0,12.0,75,0.00,,,0.00,Rainwise IP-100,2013-05-05 22:21:00,
2013-05-05 18:26:00,47.0,39.0,30.28,ENE,67,6.0,8.0,74,0.00,,,0.00,Rainwise IP-100,2013-05-05 22:26:00,
2013-05-05 18:31:00,47.0,39.0,30.28,SE,135,4.0,11.0,75,0.00,,,0.00,Rainwise IP-100,2013-05-05 22:31:00,
2013-05-05 18:36:00,47.0,39.0,30.28,ENE,67,2.0,9.0,75,0.00,,,0.00,Rainwise IP-100,2013-05-05 22:36:00,
2013-05-05 18:41:00,47.0,39.0,30.28,ESE,112,2.0,10.0,75,0.00,,,0.00,Rainwise IP-100,2013-05-05 22:41:00,
2013-05-05 18:46:00,47.0,39.0,30.28,South,180,0.0,9.0,75,0.00,,,0.00,Rainwise IP-100,2013-05-05 22:46:00,
2013-05-05 18:51:00,47.0,39.0,30.28,East,90,7.0,9.0,75,0.00,,,0.00,Rainwise IP-100,2013-05-05 22:51:00,
2013-05-05 18:56:00,46.0,38.0,30.28,East,90,3.0,13.0,75,0.00,,,0.00,Rainwise IP-100,2013-05-05 22:56:00,
2013-05-05 19:01:00,46.0,38.0,30.29,East,90,5.0,14.0,75,0.00,,,0.00,Rainwise IP-100,2013-05-05 23:01:00,
2013-05-05 19:06:00,46.0,38.0,30.29,ESE,112,0.0,12.0,74,0.00,,,0.00,Rainwise IP-100,2013-05-05 23:06:00,
2013-05-05 19:11:00,46.0,38.0,30.29,SE,135,7.0,9.0,74,0.00,,,0.00,Rainwise IP-100,2013-05-05 23:11:00,
2013-05-05 19:16:00,46.0,38.0,30.29,East,90,5.0,10.0,74,0.00,,,0.00,Rainwise IP-100,2013-05-05 23:16:00,
2013-05-05 19:21:00,46.0,38.0,30.29,SE,135,3.0,10.0,74,0.00,,,0.00,Rainwise IP-100,2013-05-05 23:21:00,
2013-05-05 19:27:00,46.0,38.0,30.29,South,180,0.0,10.0,74,0.00,,,0.00,Rainwise IP-100,2013-05-05 23:27:00,
2013-05-05 19:32:00,46.0,38.0,30.29,SE,135,6.0,7.0,74,0.00,,,0.00,Rainwise IP-100,2013-05-05 23:32:00,
2013-05-05 19:37:00,46.0,38.0,30.29,East,90,1.0,7.0,74,0.00,,,0.00,Rainwise IP-100,2013-05-05 23:37:00,
2013-05-05 19:42:00,46.0,38.0,30.29,ENE,67,4.0,9.0,74,0.00,,,0.00,Rainwise IP-100,2013-05-05 23:42:00,
2013-05-05 19:47:00,46.0,38.0,30.29,East,90,1.0,8.0,74,0.00,,,0.00,Rainwise IP-100,2013-05-05 23:47:00,
2013-05-05 19:52:00,46.0,38.0,30.29,East,90,3.0,12.0,74,0.00,,,0.00,Rainwise IP-100,2013-05-05 23:52:00,
2013-05-05 19:57:00,45.0,37.0,30.29,ENE,67,0.0,9.0,74,0.00,,,0.00,Rainwise IP-100,2013-05-05 23:57:00,
2013-05-05 20:02:00,45.0,37.0,30.29,East,90,7.0,8.0,74,0.00,,,0.00,Rainwise IP-100,2013-05-06 00:02:00,
2013-05-05 20:07:00,45.0,37.0,30.29,SE,135,7.0,12.0,74,0.00,,,0.00,Rainwise IP-100,2013-05-06 00:07:00,
2013-05-05 20:12:00,45.0,37.0,30.29,East,90,3.0,10.0,74,0.00,,,0.00,Rainwise IP-100,2013-05-06 00:12:00,
2013-05-05 20:17:00,45.0,37.0,30.29,SSE,157,1.0,9.0,74,0.00,,,0.00,Rainwise IP-100,2013-05-06 00:17:00,
2013-05-05 20:22:00,45.0,37.0,30.30,East,90,3.0,9.0,74,0.00,,,0.00,Rainwise IP-100,2013-05-06 00:22:00,
2013-05-05 20:27:00,45.0,37.0,30.30,East,90,5.0,12.0,73,0.00,,,0.00,Rainwise IP-100,2013-05-06 00:27:00,
2013-05-05 20:32:00,45.0,37.0,30.30,East,90,6.0,11.0,73,0.00,,,0.00,Rainwise IP-100,2013-05-06 00:32:00,
2013-05-05 20:37:00,45.0,37.0,30.30,ESE,112,7.0,11.0,72,0.00,,,0.00,Rainwise IP-100,2013-05-06 00:37:00,
2013-05-05 20:43:00,45.0,37.0,30.30,East,90,6.0,12.0,72,0.00,,,0.00,Rainwise IP-100,2013-05-06 00:43:00,
2013-05-05 20:48:00,45.0,37.0,30.30,East,90,7.0,10.0,72,0.00,,,0.00,Rainwise IP-100,2013-05-06 00:48:00,
2013-05-05 20:53:00,45.0,37.0,30.30,SE,135,1.0,9.0,72,0.00,,,0.00,Rainwise IP-100,2013-05-06 00:53:00,
2013-05-05 20:58:00,45.0,36.0,30.30,East,90,3.0,8.0,71,0.00,,,0.00,Rainwise IP-100,2013-05-06 00:58:00,
2013-05-05 21:03:00,45.0,36.0,30.30,East,90,5.0,7.0,71,0.00,,,0.00,Rainwise IP-100,2013-05-06 01:03:00,
2013-05-05 21:08:00,45.0,36.0,30.30,East,90,0.0,7.0,71,0.00,,,0.00,Rainwise IP-100,2013-05-06 01:08:00,
2013-05-05 21:13:00,45.0,36.0,30.30,East,90,0.0,9.0,71,0.00,,,0.00,Rainwise IP-100,2013-05-06 01:13:00,
2013-05-05 21:18:00,45.0,36.0,30.30,East,90,5.0,6.0,70,0.00,,,0.00,Rainwise IP-100,2013-05-06 01:18:00,
2013-05-05 21:23:00,45.0,36.0,30.30,ESE,112,3.0,8.0,70,0.00,,,0.00,Rainwise IP-100,2013-05-06 01:23:00,
2013-05-05 21:28:00,45.0,36.0,30.30,East,90,0.0,8.0,70,0.00,,,0.00,Rainwise IP-100,2013-05-06 01:28:00,
2013-05-05 21:33:00,45.0,36.0,30.31,East,90,6.0,9.0,70,0.00,,,0.00,Rainwise IP-100,2013-05-06 01:33:00,
2013-05-05 21:38:00,45.0,36.0,30.31,East,90,7.0,7.0,69,0.00,,,0.00,Rainwise IP-100,2013-05-06 01:38:00,
2013-05-05 21:43:00,45.0,36.0,30.30,East,90,1.0,8.0,69,0.00,,,0.00,Rainwise IP-100,2013-05-06 01:43:00,
2013-05-05 21:48:00,44.0,35.0,30.30,East,90,6.0,11.0,69,0.00,,,0.00,Rainwise IP-100,2013-05-06 01:48:00,
2013-05-05 21:53:00,44.0,35.0,30.32,SE,135,1.0,7.0,69,0.00,,,0.00,Rainwise IP-100,2013-05-06 01:53:00,
2013-05-05 21:59:00,44.0,35.0,30.32,ESE,112,0.0,7.0,69,0.00,,,0.00,Rainwise IP-100,2013-05-06 01:59:00,
2013-05-05 22:04:00,44.0,35.0,30.32,South,180,4.0,8.0,68,0.00,,,0.00,Rainwise IP-100,2013-05-06 02:04:00,
2013-05-05 22:09:00,44.0,36.0,30.32,SE,135,2.0,9.0,73,0.00,,,0.00,Rainwise IP-100,2013-05-06 02:09:00,
2013-05-05 22:14:00,44.0,35.0,30.32,SSE,157,3.0,10.0,68,0.00,,,0.00,Rainwise IP-100,2013-05-06 02:14:00,
2013-05-05 22:19:00,44.0,36.0,30.31,SE,135,6.0,9.0,73,0.00,,,0.00,Rainwise IP-100,2013-05-06 02:19:00,
2013-05-05 22:24:00,44.0,33.0,30.31,East,90,0.0,9.0,67,0.00,,,0.00,Rainwise IP-100,2013-05-06 02:24:00,
2013-05-05 22:29:00,44.0,36.0,30.31,SE,135,1.0,8.0,72,0.00,,,0.00,Rainwise IP-100,2013-05-06 02:29:00,
2013-05-05 22:34:00,44.0,33.0,30.31,ESE,112,4.0,9.0,66,0.00,,,0.00,Rainwise IP-100,2013-05-06 02:34:00,
2013-05-05 22:39:00,44.0,36.0,30.30,ESE,112,6.0,11.0,72,0.00,,,0.00,Rainwise IP-100,2013-05-06 02:39:00,
2013-05-05 22:44:00,44.0,33.0,30.30,ESE,112,3.0,9.0,66,0.00,,,0.00,Rainwise IP-100,2013-05-06 02:44:00,
2013-05-05 22:49:00,44.0,36.0,30.30,SE,135,3.0,8.0,72,0.00,,,0.00,Rainwise IP-100,2013-05-06 02:49:00,
2013-05-05 22:54:00,44.0,33.0,30.30,SE,135,1.0,10.0,65,0.00,,,0.00,Rainwise IP-100,2013-05-06 02:54:00,
2013-05-05 22:59:00,44.0,36.0,30.30,South,180,0.0,7.0,71,0.00,,,0.00,Rainwise IP-100,2013-05-06 02:59:00,
2013-05-05 23:04:00,44.0,33.0,30.30,ESE,112,3.0,6.0,65,0.00,,,0.00,Rainwise IP-100,2013-05-06 03:04:00,
2013-05-05 23:09:00,44.0,36.0,30.30,ESE,112,2.0,6.0,71,0.00,,,0.00,Rainwise IP-100,2013-05-06 03:09:00,
2013-05-05 23:15:00,44.0,33.0,30.30,ESE,112,5.0,9.0,64,0.00,,,0.00,Rainwise IP-100,2013-05-06 03:15:00,
2013-05-05 23:20:00,43.0,32.0,30.30,SE,135,2.0,9.0,64,0.00,,,0.00,Rainwise IP-100,2013-05-06 03:20:00,
2013-05-05 23:25:00,43.0,32.0,30.30,ESE,112,3.0,5.0,63,0.00,,,0.00,Rainwise IP-100,2013-05-06 03:25:00,
2013-05-05 23:30:00,43.0,32.0,30.31,East,90,2.0,6.0,63,0.00,,,0.00,Rainwise IP-100,2013-05-06 03:30:00,
2013-05-05 23:35:00,43.0,31.0,30.31,SE,135,1.0,4.0,62,0.00,,,0.00,Rainwise IP-100,2013-05-06 03:35:00,
2013-05-05 23:40:00,43.0,31.0,30.31,ESE,112,0.0,6.0,62,0.00,,,0.00,Rainwise IP-100,2013-05-06 03:40:00,
2013-05-05 23:45:00,43.0,31.0,30.31,South,180,1.0,7.0,62,0.00,,,0.00,Rainwise IP-100,2013-05-06 03:45:00,
2013-05-05 23:50:00,43.0,31.0,30.30,SE,135,3.0,7.0,62,0.00,,,0.00,Rainwise IP-100,2013-05-06 03:50:00,
2013-05-05 23:55:00,43.0,31.0,30.30,East,90,4.0,6.0,61,0.00,,,0.00,Rainwise IP-100,2013-05-06 03:55:00,